Terug naar catalogus

SL-6 R/B(2)

ActiefHEO
NORAD 11079·ROCKET BODY·🇷🇺 Russia

Gelanceerd Oct 13, 1978 vanaf Plesetsk Cosmodrome

Loading…

Volgende Passages (komende 24 uur)

TLE

VersSource: Space-Track

Epoch: Sep 8, 2026, 00:44 UTC

1 11079U 78095E   26251.03092902  .00000000  00000-0 -41410-2 0  9991
2 11079  63.9608 262.3277 6959514 273.2163  16.1163  2.23600456 94418

Volg SL-6 R/B(2) in realtime met AllMySat

Download on the App Store